Everett, WA

8:47 AM PST on December 14, 2019 (GMT -0800)
Snohomish County

Weather History for KPAE - October, 2019

Change the Weather History Date:

Wednesday, October 16, 2019

  Actual Average Record
Temperature  
Mean Temperature 54 °F -  
Max Temperature 57 °F 59 °F 78 °F (1954)
Min Temperature 51 °F 40 °F 30 °F (1970)
Degree Days  
Heating Degree Days 11    
Growing Degree Days 4 (Base 50)    
Moisture  
Dew Point 48 °F    
Average Humidity 80    
Maximum Humidity 94    
Minimum Humidity 57    
Precipitation  
Precipitation 0.14 in - - ()
Sea Level Pressure  
Sea Level Pressure 29.72 in    
Wind  
Wind Speed 13 mph (South)    
Max Wind Speed 24 mph    
Max Gust Speed 31 mph    
Visibility 9 miles    
Events Rain    
Averages and records for this station are not official NWS values.
T = Trace of Precipitation, MM = Missing Value Source: NWS Daily Summary

Daily Weather History Graph

Daily Weather History Graph

Search for Another Location

Airport or City:

Astronomy

Oct. 16, 2019 Rise Set
Actual Time 7:29 AM PDT 6:18 PM PDT
Civil Twilight 6:58 AM PDT 6:50 PM PDT
Nautical Twilight 6:22 AM PDT 7:26 PM PDT
Astronomical Twilight 5:46 AM PDT 8:01 PM PDT
Moon 8:04 PM PDT (10/16) 10:14 AM PDT (10/16)
Length of Visible Light 11h 51m
Length of Day
10h 49m
Waning Gibbous, 92% of the Moon is Illuminated
Oct 16
Waning Gibbous
Oct 21
Last Quarter
Oct 27
New
Nov 4
First Quarter
Nov 12
Full

Hourly Weather History & Observations

Time (PDT) Temp. Dew Point Humidity Pressure Visibility Wind Dir Wind Speed Gust Speed Precip Events Conditions
12:53 AM 55.9 °F 42.1 °F 60% 29.88 in 10.0 mi SSE 10.4 mph - N/A   Partly Cloudy
1:53 AM 55.0 °F 43.0 °F 64% 29.86 in 10.0 mi SSE 13.8 mph - N/A   Overcast
2:53 AM 55.0 °F 42.1 °F 62% 29.86 in 10.0 mi SSE 13.8 mph - N/A   Mostly Cloudy
3:53 AM 55.9 °F 41.0 °F 57% 29.85 in 10.0 mi SSE 12.7 mph - 0.00 in   Overcast
4:53 AM 53.1 °F 44.1 °F 71% 29.83 in 9.0 mi SE 8.1 mph - 0.02 in Rain Light Rain
5:53 AM 53.1 °F 42.1 °F 66% 29.79 in 10.0 mi SSE 10.4 mph - 0.03 in   Overcast
6:53 AM 52.0 °F 44.1 °F 74% 29.79 in 10.0 mi SSE 10.4 mph - 0.00 in Rain Light Rain
7:53 AM 51.1 °F 45.0 °F 80% 29.79 in 10.0 mi SSE 11.5 mph - 0.00 in   Overcast
8:53 AM 52.0 °F 45.0 °F 77% 29.78 in 10.0 mi North - - N/A   Overcast
9:53 AM 52.0 °F 46.9 °F 83% 29.77 in 10.0 mi SW 6.9 mph - 0.00 in   Overcast
10:53 AM 52.0 °F 48.0 °F 86% 29.76 in 7.0 mi SSE 12.7 mph - 0.01 in Rain Light Rain
11:53 AM 53.1 °F 48.9 °F 86% 29.75 in 10.0 mi SSE 11.5 mph 25.3 mph 0.01 in   Overcast
12:53 PM 55.0 °F 50.0 °F 83% 29.72 in 10.0 mi SSE 12.7 mph - N/A   Overcast
1:34 PM 55.0 °F 51.1 °F 86% 29.71 in 8.0 mi SSE 17.3 mph 25.3 mph N/A   Overcast
1:53 PM 55.9 °F 51.1 °F 84% 29.70 in 10.0 mi South 16.1 mph 25.3 mph N/A   Overcast
2:53 PM 57.0 °F 51.1 °F 81% 29.67 in 10.0 mi South 16.1 mph 25.3 mph N/A   Overcast
3:53 PM 57.0 °F 51.1 °F 81% 29.65 in 10.0 mi South 13.8 mph - N/A   Overcast
4:53 PM 57.0 °F 50.0 °F 77% 29.65 in 10.0 mi South 12.7 mph - N/A   Overcast
5:30 PM 55.9 °F 51.1 °F 84% 29.65 in 2.5 mi SSW 13.8 mph 28.8 mph 0.02 in Rain Rain
5:53 PM 54.0 °F 52.0 °F 93% 29.64 in 5.0 mi South 18.4 mph - 0.05 in Rain Light Rain
6:53 PM 54.0 °F 52.0 °F 93% 29.62 in 10.0 mi South 16.1 mph - 0.02 in Rain Light Rain
7:49 PM 53.6 °F 51.8 °F 94% 29.63 in 10.0 mi South 19.6 mph 26.5 mph 0.00 in   Mostly Cloudy
7:53 PM 54.0 °F 51.1 °F 90% 29.63 in 10.0 mi South 24.2 mph 28.8 mph 0.00 in   Mostly Cloudy
8:53 PM 53.1 °F 50.0 °F 89% 29.65 in 10.0 mi South 19.6 mph - N/A   Mostly Cloudy
9:00 PM 53.1 °F 50.0 °F 89% 29.65 in 10.0 mi SSW 18.4 mph 26.5 mph N/A   Partly Cloudy
9:53 PM 53.1 °F 48.9 °F 86% 29.65 in 10.0 mi South 19.6 mph 27.6 mph N/A   Scattered Clouds
10:53 PM 53.1 °F 48.9 °F 86% 29.65 in 10.0 mi South 19.6 mph 31.1 mph N/A   Scattered Clouds
11:53 PM 52.0 °F 48.9 °F 89% 29.68 in 10.0 mi South 18.4 mph - N/A   Scattered Clouds